#timestamp,LO_Frequency,Hit,StdDev 
1594062015.2,286047000.9,N
1594062035.0,286047000.9,N
1594062035.9,286047000.9,N
1594062055.7,286047001.1,N
1594062075.6,286047001.2,N
1594062095.4,286046999.3,N
1594062115.3,286046998.9,N
1594062135.1,286047001.1,N
1594062136.0,286047001.1,N
1594062155.8,286047000.8,N
1594062175.7,286047000.4,N
1594062195.5,286047001.8,N
1594062215.4,286047000.5,N
1594062235.2,286047003.3,N
1594062255.0,286047003.1,N
1594062255.9,286047003.1,N
1594062275.8,286047003.8,N
1594062295.6,286047004.0,N
1594062315.4,286047001.4,N
1594062335.3,286047003.4,N
1594062355.1,286047003.0,N
1594062375.9,286047004.0,N
1594062395.7,286047004.1,N
1594062415.5,286047002.1,N
1594062435.4,286047002.4,N
1594062455.2,286047002.4,N
1594062475.0,286047004.0,N
1594062475.9,286047004.0,N
1594062495.8,286047004.4,N
1594062515.6,286047002.1,N
1594062535.5,286047002.8,N
1594062555.3,286046999.7,N
1594062575.1,286047003.0,N
1594062595.9,286047001.8,N
1594062615.7,286047003.1,N
1594062635.6,286047003.9,N
1594062655.4,286047002.7,N
1594062675.2,286047000.5,N
1594062695.1,286046999.9,N
1594062696.0,286046999.9,N
1594062715.8,286047002.6,N
1594062735.6,286046999.8,N
1594062755.5,286047000.1,N
1594062775.3,286047001.9,N
1594062795.2,286047002.4,N
1594062815.0,286047003.1,N
1594062815.9,286047003.1,N
1594062835.8,286047005.2,Y
1594062855.6,286047001.6,P
1594062875.4,286047002.1,P
1594062895.3,286047004.3,P
1594062915.1,286047004.7,Y
1594062935.9,286047004.1,P
1594062955.7,286047000.1,N
1594062975.5,286047000.0,N
1594062995.4,286047001.0,N
1594063015.2,286047000.4,N
1594063035.0,286047001.1,N
1594063035.9,286047001.1,N
1594063055.8,286047000.4,N
1594063075.6,286047002.4,N
1594063095.5,286046999.8,N
1594063115.3,286047002.7,N
1594063135.1,286047003.5,N
1594063155.9,286047000.5,N
1594063175.7,286047001.1,N
1594063195.5,286047002.3,N
1594063215.4,286047000.8,N
1594063235.2,286046998.8,N
1594063255.1,286046996.8,N
1594063256.0,286046996.8,N
1594063275.8,286046998.6,N
1594063295.6,286046999.6,N
1594063315.5,286046996.6,N
1594063335.3,286046996.8,N
1594063355.2,286046999.3,N
1594063375.9,286046999.4,N
1594063395.7,286046999.0,N
1594063415.6,286046998.8,N
1594063435.4,286046998.9,N
1594063455.2,286047000.0,N
1594063475.1,286047000.8,N
1594063476.0,286047000.8,N
1594063495.8,286046998.6,N
1594063515.7,286046998.7,N
1594063535.5,286046999.2,N
1594063555.3,286046998.8,N
1594063575.2,286046998.3,N
1594063595.0,286046999.0,N
1594063595.9,286046999.0,N
1594063615.8,286046999.0,N
1594063635.6,286046998.4,N
1594063655.4,286046998.7,N
1594063675.3,286046996.9,N
1594063695.1,286046999.2,N
1594063715.8,286047000.4,N
1594063735.7,286046999.3,N
1594063755.5,286046999.0,N
1594063775.4,286046998.4,N
1594063795.2,286046998.4,N
1594063815.0,286046999.5,N
1594063815.9,286046999.5,N
1594063835.8,286046999.0,N
1594063855.6,286047000.6,N
1594063875.5,286046998.4,N
1594063895.3,286047000.8,N
1594063915.1,286046999.8,N
1594063935.9,286047001.1,N
1594063955.7,286046999.0,N
1594063975.6,286046998.7,N
1594063995.4,286046998.3,N
1594064015.2,286046999.9,N
1594064035.1,286047001.0,N
1594064036.0,286047001.0,N
1594064055.8,286046998.1,N
1594064075.6,286047000.4,N
1594064095.5,286046998.1,N
1594064115.3,286047001.0,N
1594064135.4,286047000.6,N
1594064155.3,286046998.8,N
1594064175.1,286046998.9,N
1594064176.0,286046998.9,N
1594064195.8,286046999.1,N
1594064215.7,286046998.3,N
1594064235.5,286046998.8,N
1594064255.4,286046998.9,N
1594064275.2,286046998.4,N
1594064295.0,286046999.4,N
1594064295.9,286046999.4,N
1594064315.8,286046998.1,N
1594064335.6,286046998.2,N
1594064355.4,286046998.9,N
1594064375.3,286046996.5,Y
1594064395.1,286046999.5,P
1594064415.9,286046998.4,P
1594064435.7,286047001.5,P
1594064455.5,286047001.5,N
1594064475.4,286047002.0,N
1594064495.2,286047002.3,N
1594064515.1,286047002.0,N
1594064516.0,286047002.0,N
1594064535.8,286047002.8,N
1594064555.6,286047001.9,N
1594064575.5,286047001.7,N
1594064595.3,286047001.6,N
1594064615.1,286047002.6,N
1594064635.9,286047001.6,N
1594064655.7,286047001.7,N
1594064675.6,286047001.5,N
1594064695.4,286047002.8,N
1594064715.2,286047002.2,N
1594064735.1,286047002.3,N
1594064736.0,286047002.3,N
1594064755.8,286047002.6,N
1594064775.7,286047002.3,N
1594064795.5,286047002.2,N
1594064815.3,286047002.0,N
1594064835.2,286047002.1,N
1594064855.0,286047002.3,N
1594064855.9,286047002.3,N
1594064875.8,286047001.8,N
1594064895.6,286047003.2,Y
1594064915.4,286047002.5,P
1594064935.3,286047001.4,P
1594064955.1,286047002.2,P
1594064975.9,286047002.5,Y
1594064995.7,286047002.1,P
1594065015.5,286047002.0,P
1594065035.4,286047003.9,P
1594065055.2,286047004.2,Y
1594065075.0,286046999.7,P
1594065075.9,286046999.7,N
1594065095.8,286046999.9,N
1594065115.6,286046998.6,N
1594065135.5,286046999.5,N
1594065155.3,286046999.4,N
1594065175.1,286046999.6,N
1594065195.9,286046998.9,N
1594065215.7,286046999.3,N
1594065235.6,286046996.7,Y
1594065255.4,286046997.1,P
1594065275.2,286046997.6,N
1594065295.1,286046994.9,P
1594065296.0,286046994.9,Y
1594065315.8,286047001.2,P
1594065335.7,286047000.8,N
1594065355.5,286047000.7,N
1594065375.3,286047000.6,N
1594065395.2,286047001.0,N
1594065415.0,286046998.6,N
1594065415.9,286046998.6,N
1594065435.7,286046997.0,N
1594065455.6,286046997.6,N
1594065475.4,286046995.2,Y
1594065495.3,286046998.0,P
1594065515.1,286046997.1,P
1594065535.8,286046995.0,P
1594065555.7,286046996.2,N
1594065575.5,286046997.8,N
1594065595.4,286046998.9,N
